[[{"header":{"parameterUnit":"m.s-1","parameterCategory":1,"la1":30.2991,"la2":30.254,"lo1":-89.0895,"lo2":-89.0444,"dy":0.0017,"dx":0.0017,"nx":28,"ny":28,"refTime":"2024-06-22T03:00:00:Z","depth":0,"parameterNumber":2,"parameterNumberName":"U-component_of_WINDS"},"data":[0,0,0,0,0,0,0,0,0,0,0,0,0,0,0,0,0,0,0,0,0,0,0,0,0,0,0,0,0,0,0,0,0,0,0,0,0,0,0,0,0,0,0,0,0,0,0,0,0,0,0,0,0,0,0,0,0,0,-1.8887,-1.8886,0,-1.8823,-1.8823,-1.8822,-1.8788,-1.8788,-1.8788,-1.8788,-1.8722,-1.872,-1.8719,0,0,0,0,0,0,0,0,0,0,0,0,0,-1.898,-1.8978,-1.8887,-1.8886,-1.8885,-1.8824,-1.8823,-1.8822,-1.8788,-1.8788,-1.8788,-1.8788,-1.8723,-1.8721,-1.8719,0,0,0,0,0,0,0,0,0,0,0,0,0,-1.893,-1.8978,-1.8887,-1.8861,-1.8858,-1.8824,-1.8823,-1.8822,-1.8788,-1.8788,-1.8788,-1.8788,-1.8723,-1.8721,-1.8718,-1.8704,0,0,-1.8711,-1.8709,0,0,0,0,0,0,0,0,-1.8933,-1.8927,-1.8866,-1.8863,-1.8859,-1.8814,-1.8831,-1.8782,-1.8788,-1.8815,-1.8788,-1.8788,-1.8753,-1.8748,-1.8736,-1.8701,-1.8699,-1.871,-1.8709,-1.8708,-1.8707,0,0,0,0,0,0,0,-1.8936,-1.8929,-1.8862,-1.8865,-1.8861,-1.8853,-1.8846,-1.8822,-1.8785,-1.8812,-1.881,-1.8803,-1.8751,-1.8738,-1.8734,-1.8698,-1.871,-1.8708,-1.8707,-1.8706,-1.865,-1.8651,0,0,0,0,0,0,-1.8944,-1.8932,-1.8864,-1.886,-1.8897,-1.8851,-1.8843,-1.8828,-1.8785,-1.8778,-1.8803,-1.8801,-1.8743,-1.8737,-1.8732,-1.8713,-1.8708,-1.8705,-1.8704,-1.865,-1.865,-1.8651,0,0,0,0,0,0,-1.8946,-1.8938,-1.8866,-1.8895,-1.8886,-1.885,-1.8833,-1.8827,-1.8815,-1.8778,-1.8771,-1.8797,-1.8742,-1.8735,-1.8712,-1.871,-1.8704,-1.8702,-1.865,-1.865,-1.865,-1.8676,0,0,0,0,0,0,-1.8949,-1.8939,-1.8933,-1.8896,-1.8884,-1.8847,-1.8833,-1.8826,-1.8811,-1.8808,-1.8771,-1.8764,-1.8742,-1.8716,-1.8709,-1.8707,-1.87,-1.865,-1.865,-1.865,-1.8675,-1.8677,-1.8679,0,0,0,0,0,-1.8952,-1.8942,-1.8933,-1.8925,-1.8876,-1.8847,-1.8841,-1.8816,-1.8811,-1.8804,-1.8781,-1.8765,-1.8712,-1.8714,-1.8706,-1.8703,-1.865,-1.865,-1.865,-1.8674,-1.8677,-1.8678,0,0,0,0,0,0,-1.898,-1.8937,-1.8926,-1.8903,-1.888,-1.8842,-1.8833,-1.8819,-1.8795,-1.8794,-1.8763,-1.8755,-1.8735,-1.8717,-1.8719,-1.8688,-1.868,-1.8678,-1.87,-1.8702,-1.8704,-1.8708,-1.8698,0,0,0,0,0,-1.8984,-1.8964,-1.8927,-1.8911,-1.89,-1.8869,-1.8855,-1.8838,-1.8812,-1.8801,-1.8776,-1.8751,-1.8729,-1.8715,-1.8692,-1.8673,-1.8665,-1.8667,-1.8669,-1.8671,-1.8669,-1.8659,-1.866,-1.8651,-1.8651,-1.8651,0,0,-1.899,-1.8964,-1.8954,-1.8916,-1.8895,-1.8876,-1.886,-1.884,-1.8825,-1.8798,-1.8775,-1.8756,-1.8726,-1.8705,-1.8695,-1.8689,-1.867,-1.8671,-1.8672,-1.867,-1.8659,-1.866,-1.8661,-1.8651,-1.8651,-1.8651,0,0,-1.8993,-1.8971,-1.8956,-1.8936,-1.8905,-1.8885,-1.8882,-1.8847,-1.8833,-1.8809,-1.8789,-1.8772,-1.8734,-1.8714,-1.8699,-1.8697,-1.8681,-1.869,-1.8699,-1.8689,-1.869,-1.869,-1.8689,-1.869,-1.8689,-1.869,-1.869,0,-1.9005,-1.8975,-1.8949,-1.8931,-1.8915,-1.8891,-1.8875,-1.8857,-1.8821,-1.8811,-1.8806,-1.8759,-1.8737,-1.8712,-1.8712,-1.87,-1.8696,-1.8693,-1.8692,-1.8692,-1.8692,-1.8691,-1.8691,-1.8691,-1.8691,-1.8691,-1.869,0,-1.8991,-1.8971,-1.8962,-1.8929,-1.8912,-1.8895,-1.8868,-1.8854,-1.884,-1.8821,-1.8798,-1.8771,-1.8743,-1.8736,-1.8721,-1.8709,-1.8707,-1.8697,-1.8688,-1.8694,-1.8693,-1.8692,-1.8693,-1.8692,-1.8692,-1.8691,0,0,-1.9007,-1.8961,-1.8958,-1.8943,-1.8909,-1.8893,-1.8876,-1.8849,-1.8839,-1.8815,-1.88,-1.877,-1.8761,-1.8744,-1.8727,-1.8719,-1.8719,-1.871,-1.8709,-1.8712,-1.8705,-1.8712,-1.8712,-1.871,-1.871,-1.871,-1.8708,0,-1.9004,-1.8972,-1.895,-1.8926,-1.8907,-1.8885,-1.8871,-1.8848,-1.8831,-1.8813,-1.8793,-1.8772,-1.8762,-1.8752,-1.8743,-1.8721,-1.8718,-1.8721,-1.8696,-1.8695,-1.8703,-1.8711,-1.8718,-1.8717,-1.8707,-1.8707,-1.8707,0,-1.8996,-1.8974,-1.8949,-1.8918,-1.8909,-1.8896,-1.8871,-1.8854,-1.8829,-1.8817,-1.8799,-1.8782,-1.8764,-1.8758,-1.8732,-1.8735,-1.8724,-1.8712,-1.8712,-1.8707,-1.87,-1.8707,-1.8717,-1.8716,-1.8706,-1.8706,-1.8706,0,-1.901,-1.8974,-1.8954,-1.8942,-1.8906,-1.8897,-1.8882,-1.8857,-1.8843,-1.8821,-1.8812,-1.8789,-1.8776,-1.8758,-1.8736,-1.8733,-1.8713,-1.8704,-1.8702,-1.8703,-1.8697,-1.8698,-1.8705,-1.8692,-1.8692,-1.8692,-1.8692,0,-1.9008,-1.8994,-1.896,-1.8948,-1.8932,-1.8907,-1.8892,-1.8874,-1.8853,-1.8837,-1.8817,-1.8804,-1.8775,-1.8758,-1.874,-1.8722,-1.8717,-1.8706,-1.8702,-1.8708,-1.8709,-1.8699,-1.8698,-1.8692,-1.8692,-1.8692,-1.8692,0,-1.902,-1.8997,-1.8975,-1.8943,-1.8935,-1.8924,-1.8897,-1.8885,-1.8867,-1.8848,-1.8842,-1.8814,-1.8793,-1.8769,-1.874,-1.8729,-1.8712,-1.8705,-1.872,-1.8717,-1.8716,-1.8716,-1.8716,-1.8715,-1.8703,-1.8704,-1.8704,0,-1.902,-1.9009,-1.8976,-1.8965,-1.895,-1.8932,-1.8918,-1.8894,-1.888,-1.8852,-1.8844,-1.8822,-1.8802,-1.877,-1.8747,-1.8725,-1.8718,-1.8719,-1.8714,-1.8721,-1.8717,-1.8718,-1.8717,-1.872,-1.8721,-1.8721,-1.8721,0,-1.9023,-1.9013,-1.8994,-1.8971,-1.8955,-1.8936,-1.8916,-1.8908,-1.8881,-1.8867,-1.8845,-1.8831,-1.8802,-1.878,-1.8756,-1.874,-1.8726,-1.8723,-1.8721,-1.8727,-1.8736,-1.8731,-1.8723,-1.8723,-1.8723,-1.8722,-1.8722,-1.8722,-1.9029,-1.9018,-1.8994,-1.8973,-1.8956,-1.8939,-1.8926,-1.8908,-1.8889,-1.8864,-1.8852,-1.8831,-1.8808,-1.8774,-1.8759,-1.8742,-1.8738,-1.8735,-1.8734,-1.8734,-1.8736,-1.8739,-1.8738,-1.8738,-1.8738,-1.8738,-1.8738,0,-1.903,-1.9014,-1.8996,-1.8969,-1.8954,-1.8943,-1.8921,-1.8909,-1.889,-1.887,-1.8852,-1.8829,-1.8808,-1.8785,-1.8763,-1.8754,-1.8747,-1.8749,-1.8749,-1.8746,-1.8741,-1.8745,-1.8755,-1.8755,-1.8755,-1.8755,-1.8755,-1.8755,-1.9029,-1.9011,-1.8998,-1.8971,-1.8955,-1.8934,-1.8923,-1.8907,-1.8891,-1.8865,-1.8848,-1.8833,-1.8812,-1.8789,-1.877,-1.8764,-1.8756,-1.876,-1.8752,-1.8748,-1.8746,-1.8745,-1.8748,-1.8759,-1.8759,-1.8758,-1.8758,-1.8758]},{"header":{"parameterUnit":"m.s-1","parameterCategory":1,"la1":30.2991,"la2":30.254,"lo1":-89.0895,"lo2":-89.0444,"dy":0.0017,"dx":0.0017,"nx":28,"ny":28,"refTime":"2024-06-22T03:00:00:Z","depth":0,"parameterNumber":3,"parameterNumberName":"V-component_of_WINDS"},"data":[0,0,0,0,0,0,0,0,0,0,0,0,0,0,0,0,0,0,0,0,0,0,0,0,0,0,0,0,0,0,0,0,0,0,0,0,0,0,0,0,0,0,0,0,0,0,0,0,0,0,0,0,0,0,0,0,0,0,3.3305,3.3306,0,3.3333,3.3334,3.3334,3.3386,3.3387,3.3388,3.3388,3.3413,3.3413,3.3412,0,0,0,0,0,0,0,0,0,0,0,0,0,3.3293,3.3293,3.3305,3.3306,3.3306,3.3333,3.3334,3.3334,3.3385,3.3387,3.3388,3.3389,3.3413,3.3413,3.3412,0,0,0,0,0,0,0,0,0,0,0,0,0,3.3307,3.3293,3.3305,3.3335,3.3338,3.3333,3.3334,3.3334,3.3385,3.3387,3.3388,3.339,3.3413,3.3413,3.3412,3.3379,0,0,3.3411,3.3411,0,0,0,0,0,0,0,0,3.3306,3.3308,3.333,3.3333,3.3336,3.3358,3.3338,3.3349,3.3385,3.3367,3.3389,3.339,3.3393,3.3394,3.3396,3.3381,3.3382,3.3411,3.3411,3.341,3.341,0,0,0,0,0,0,0,3.3305,3.3307,3.3316,3.3331,3.3334,3.3346,3.335,3.3341,3.3371,3.3369,3.3373,3.3375,3.3395,3.3396,3.3397,3.3382,3.3411,3.3411,3.341,3.341,3.3342,3.334,0,0,0,0,0,0,3.33,3.3306,3.3315,3.3317,3.3325,3.3345,3.3349,3.3349,3.3371,3.3376,3.3374,3.3378,3.3396,3.3398,3.3398,3.3362,3.341,3.341,3.341,3.3343,3.3342,3.334,0,0,0,0,0,0,3.33,3.3301,3.3314,3.3312,3.3315,3.3344,3.3343,3.3349,3.3351,3.3376,3.3381,3.337,3.3398,3.3399,3.3384,3.3363,3.341,3.3409,3.3345,3.3343,3.3341,3.3289,0,0,0,0,0,0,3.3299,3.33,3.3289,3.3312,3.3315,3.3301,3.3342,3.3348,3.335,3.3355,3.3373,3.3378,3.3399,3.3385,3.3384,3.3364,3.3409,3.3347,3.3344,3.3341,3.3292,3.3285,3.3278,0,0,0,0,0,3.3299,3.3272,3.3288,3.3289,3.3301,3.3299,3.3301,3.3327,3.3348,3.3337,3.3353,3.3377,3.3366,3.3383,3.3382,3.3362,3.3349,3.3345,3.3342,3.3295,3.3286,3.3278,0,0,0,0,0,0,3.3244,3.3275,3.3294,3.3274,3.3284,3.3308,3.3294,3.3317,3.332,3.3324,3.3355,3.3359,3.334,3.3349,3.3368,3.3331,3.3361,3.3357,3.3326,3.3318,3.3311,3.3309,3.3409,0,0,0,0,0,3.323,3.3227,3.3254,3.3234,3.3238,3.3265,3.3265,3.3285,3.3296,3.33,3.3315,3.3323,3.3322,3.332,3.332,3.3294,3.3299,3.328,3.3273,3.3267,3.3263,3.325,3.3242,3.3328,3.3328,3.3328,0,0,3.32,3.3217,3.3213,3.3223,3.3233,3.3229,3.3268,3.3261,3.3258,3.3298,3.3286,3.3297,3.3309,3.3289,3.3281,3.3296,3.324,3.3262,3.3257,3.3257,3.3246,3.3238,3.323,3.3326,3.3326,3.3327,0,0,3.3144,3.3156,3.3141,3.3151,3.3166,3.3185,3.3181,3.3203,3.3212,3.3201,3.3231,3.3227,3.3224,3.3231,3.3234,3.3182,3.3205,3.3181,3.3144,3.3131,3.3125,3.3119,3.31,3.3093,3.3177,3.3177,3.3177,0,3.3105,3.31,3.313,3.3122,3.3126,3.3164,3.3148,3.3156,3.317,3.3171,3.3188,3.3186,3.3196,3.3179,3.3166,3.3167,3.3164,3.3179,3.3124,3.3118,3.3113,3.3096,3.3088,3.3174,3.3174,3.3175,3.3175,0,3.3051,3.3047,3.3033,3.3048,3.305,3.3038,3.3065,3.3063,3.3083,3.3099,3.3087,3.3101,3.3105,3.3102,3.312,3.3087,3.3096,3.3118,3.3149,3.3101,3.3086,3.3079,3.317,3.3171,3.3172,3.3173,0,0,3.296,3.2993,3.2987,3.2995,3.3015,3.3012,3.3001,3.3007,3.3005,3.3013,3.3005,3.3002,3.3023,3.3026,3.3046,3.3035,3.2993,3.3058,3.3059,3.3045,3.2957,3.2941,3.2933,3.3008,3.3007,3.3006,3.2956,0,3.2908,3.2894,3.2922,3.29,3.2897,3.2934,3.2925,3.2936,3.2951,3.2949,3.2965,3.2963,3.299,3.2993,3.2984,3.3,3.2975,3.3004,3.3,3.2999,3.2996,3.2924,3.2907,3.2859,3.295,3.2949,3.2948,0,3.2846,3.2853,3.2832,3.2855,3.2854,3.2846,3.2853,3.2852,3.2865,3.2877,3.2881,3.2905,3.2896,3.2925,3.2913,3.2931,3.2931,3.2939,3.2938,3.2938,3.2971,3.2923,3.2845,3.2838,3.2939,3.294,3.294,0,3.2782,3.2787,3.2775,3.278,3.2806,3.2799,3.2809,3.2824,3.2826,3.2832,3.2833,3.2837,3.284,3.2842,3.2866,3.2885,3.285,3.2882,3.2859,3.2859,3.285,3.285,3.2771,3.285,3.285,3.285,3.285,0,3.2722,3.2707,3.2747,3.2739,3.2724,3.2756,3.2739,3.2753,3.2766,3.2761,3.2793,3.2787,3.2819,3.2817,3.2835,3.2822,3.2823,3.2832,3.2837,3.2829,3.2828,3.2829,3.2833,3.2848,3.2848,3.2849,3.2849,0,3.2648,3.2674,3.2664,3.269,3.2696,3.2683,3.2705,3.2699,3.2716,3.271,3.271,3.2737,3.2737,3.2761,3.2764,3.2777,3.2755,3.2766,3.2751,3.2755,3.2731,3.2733,3.265,3.2641,3.2725,3.2724,3.2724,0,3.2608,3.2598,3.2623,3.2623,3.2632,3.2631,3.2634,3.2664,3.2665,3.268,3.2672,3.2674,3.2678,3.2674,3.2694,3.2696,3.2708,3.2678,3.2708,3.2701,3.2708,3.2708,3.2707,3.2672,3.2671,3.267,3.2669,0,3.2534,3.2547,3.255,3.2558,3.2561,3.2568,3.2577,3.2575,3.2608,3.2607,3.2608,3.261,3.2615,3.2617,3.2624,3.2633,3.2656,3.266,3.2655,3.2647,3.2639,3.2643,3.2734,3.2662,3.2662,3.2663,3.2663,3.2664,3.2476,3.2469,3.2486,3.2489,3.2499,3.2507,3.2503,3.2521,3.2522,3.2529,3.2547,3.2544,3.2558,3.257,3.2577,3.2575,3.259,3.2582,3.258,3.2578,3.2574,3.2639,3.2576,3.2577,3.2577,3.2577,3.2577,0,3.2404,3.2417,3.2419,3.2432,3.2433,3.2457,3.2468,3.2468,3.2466,3.2477,3.2481,3.2481,3.2483,3.2503,3.2507,3.2502,3.2512,3.2502,3.2502,3.2504,3.256,3.2565,3.2493,3.2493,3.2493,3.2493,3.2493,3.2493,3.2366,3.2357,3.2372,3.2368,3.2381,3.238,3.2384,3.2392,3.2401,3.2401,3.2403,3.2417,3.2431,3.2437,3.244,3.2445,3.2445,3.2431,3.244,3.2492,3.25,3.2508,3.2512,3.2431,3.243,3.2384,3.2384,3.2383]}]]